Location: Lecco
(45.8566°N, 9.3977°E)
Time: 05:10:08
(UTC+02:00)

OTV 5 (USA 277) - Pass Details

Date: 16 June 2019
Orbit: 310 x 324 km, 54.5° (Epoch: 08 October)

Event Time Altitude Azimuth Distance (km) Brightness Sun altitude
Exits shadow 03:23:43 - 289° (WNW) 1,876 ? -15.6°
Reaches altitude 10° 03:25:41 10° 311° (NW) 1,245 ? -15.4°
Drops below altitude 10° 03:29:12 10° 30° (NNE) 1,246 ? -15.1°
Enters shadow 04:24:00 -72° 261° (W) 12,458 ? -9.6°
Maximum altitude 05:02:35 16° 11° (N) 965 ? -4.8°
